Location: Hermaringen
(48.5952°N, 10.2585°E)
Time: 05:32:12
(UTC+00:00)

IRAS Rocket - Pass Details

Date: 18 November 2025
Orbit: 845 x 876 km, 100.1° (Epoch: 10 December)

Event Time Altitude Azimuth Distance (km) Brightness Sun altitude
Rises 17:34:49 0° 161° (SSE) 3,436 7.3 -19.4°
Reaches altitude 10° 17:37:11 10° 161° (SSE) 2,499 6.5 -19.8°
Maximum altitude 17:42:45 89° 257° (WSW) 866 4.2 -20.7°
Drops below altitude 10° 17:48:18 10° 343° (NNW) 2,495 6.8 -21.6°
Sets 17:50:40 0° 344° (NNW) 3,432 7.5 -22.0°
